Regional Weather Roundup
Issued by NWS

Home | Current Version | Previous Version | Graphics & Text | Print | Product List | Glossary On
Versions: 1 2 3 4 5 6 7 8 9 10 11 12 13 14 15 16 17 18 19 20 21 22 23 24 25 26 27 28 29 30 31 32 33 34 35 36 37 38 39 40 41 42 43 44 45 46 47 48 49 50
000
ASUS43 KMPX 210301
RWRMN
WEATHER ROUNDUP FOR MINNESOTA
NATIONAL WEATHER SERVICE TWIN CITIES/CHANHASSEN MN
1000 PM CDT SUN AUG 20 2017


NOTE: "FAIR" INDICATES FEW OR NO CLOUDS BELOW 12,000 FEET WITH NO
SIGNIFICANT WEATHER AND/OR OBSTRUCTIONS TO VISIBILITY. N/A MEANS
CURRENT SKY AND/OR WEATHER CONDITIONS ARE NOT AVAILABLE.

MNZ060>063-068>070-210400-
   Twin Cities Metro

CITY           SKY/WX    TMP DP  RH WIND       PRES   REMARKS
TWIN CITIES    PTCLDY    74  64  71 N6        30.00R
ST PAUL        CLEAR     73  67  81 VRB3      30.00R
CRYSTAL        CLEAR     71  61  70 N5        29.99R
BLAINE         PTCLDY    72  64  78 NW3       30.01R
LAKEVILLE      CLOUDY    68  68 100 CALM      30.02R
EDEN PRAIRIE   CLEAR     72  66  81 N7        29.99R
SOUTH ST PAUL  CLEAR     74  65  71 N3        30.00R
LAKE ELMO      FAIR      70  64  83 CALM      30.02R
$$
MNZ001>005-007-008-013>017-022>024-027-028-210400-
   Northwest Minnesota

CITY           SKY/WX    TMP DP  RH WIND       PRES   REMARKS
BEMIDJI        CLEAR     57  50  77 CALM      30.03R
HALLOCK        CLEAR     59  46  63 SW3       29.99R
ROSEAU         CLEAR     57  48  72 S3        30.00R
WARROAD        CLEAR     55  52  88 CALM      30.00R
CROOKSTON      CLEAR     63  46  55 CALM      30.02R
FOSSTON        CLEAR     54  46  76 CALM      30.04R
DETROIT LAKES  CLEAR     61  54  77 CALM      30.06R
MOORHEAD       PTCLDY    64  54  68 SW3       30.03S
PARK RAPIDS    CLEAR     60  55  83 CALM      30.04R
MAHNOMEN       FAIR      57  52  82 S3        30.04R
$$
MNZ006-009>011-018-025>026-210400-
   North Central Minnesota

CITY           SKY/WX    TMP DP  RH WIND       PRES   REMARKS
BAUDETTE       CLEAR     58  48  69 W3        29.99R
FLAG ISLAND    CLEAR     66  46  48 CALM      29.97R HAZE
INTL FALLS     CLEAR     50  48  93 CALM      29.99R
WASKISH        CLEAR     68  52  56 W6        30.01R
BIG FORK       CLEAR     54  52  94 CALM      30.02S
LONGVILLE      CLEAR     55  54  94 CALM      30.03S
GRAND RAPIDS   CLEAR     56  55  97 CALM      30.05R
CRANE LAKE     CLEAR     52  52 100 CALM      30.01R
ORR            CLEAR     57  50  77 CALM      29.99R
COOK           CLEAR     55  54  94 CALM      30.02R
WALKER         FAIR      57  54  87 CALM      30.03S
$$
MNZ012-019>021-037-210400-
   Northeast Minnesota

CITY           SKY/WX    TMP DP  RH WIND       PRES   REMARKS
DULUTH         PTCLDY    60  55  83 W6        30.01S
ELY            CLEAR     57  54  88 CALM      30.01R
HIBBING        CLEAR     55  53  93 CALM      30.02R
EVELETH        CLEAR     58  52  80 CALM      30.03R
DULUTH HARBOR  CLEAR     70  59  68 W10       30.00S
GRAND MARAIS     N/A     68  52  56 VRB5      29.94R
$$
MNZ029>031-032-039>041-046>048-054>057-064-210400-
   West Central Minnesota

CITY           SKY/WX    TMP DP  RH WIND       PRES   REMARKS
FERGUS FALLS   CLOUDY    63  57  82 CALM      30.04R
WHEATON        CLOUDY    63  61  94 CALM      30.06R
MORRIS         CLOUDY    64  61  88 N5        30.03R
ALEXANDRIA     PTCLDY    63  59  87 N3        30.06R
ELBOW LAKE     FAIR      63  58  83 CALM      30.04S
WADENA         CLEAR     55  55 100 NW3       30.05R
GLENWOOD       PTCLDY    64  61  88 N5        30.04S
APPLETON       CLEAR     63  61  94 CALM      30.03R
BENSON         PTCLDY    61  57  88 SW3       30.05R
ORTONVILLE     PTCLDY    61  57  88 MISG      30.04R
MADISON        CLEAR     63  63 100 CALM      30.04R
WILLMAR        FAIR      64  63  94 N3        30.04S
$$
MNZ033>034-036-042>043-049>051-058-059-210400-
   Central Minnesota

CITY           SKY/WX    TMP DP  RH WIND       PRES   REMARKS
ST CLOUD       PTCLDY    63  62  97 CALM      30.02R
SAUK CENTRE    FAIR      64  57  79 CALM      30.04S
PAYNESVILLE    PTCLDY    62  60  94 CALM      30.04S
AITKIN           N/A     55  54  94 CALM      30.03R FOG
PINE RIVER     CLEAR     54  50  87 CALM      30.07S
BRAINERD       PTCLDY    60  57  89 CALM      30.04R
STAPLES        CLEAR     61  54  77 CALM      30.05R
LONG PRAIRIE   FAIR      61  55  82 NW3       30.04F
LITTLE FALLS   PTCLDY    64  55  72 NW3       30.04R
LITCHFIELD     CLEAR     66  63  88 N5        30.03S
BUFFALO        CLEAR     66  61  82 CALM      30.02S
MAPLE LAKE     CLEAR     67  62  86 NW3       30.02F
HUTCHINSON     CLEAR     66  63  90 N3        30.03R
$$
MNZ037-044-045-052-053-210400-
   East Central Minnesota

CITY           SKY/WX    TMP DP  RH WIND       PRES   REMARKS
PRINCETON      CLOUDY    64  61  88 CALM      30.02R
MORA           CLOUDY    61  57  88 CALM      30.03S
CAMBRIDGE      CLEAR     66  61  82 CALM      30.02S
RUSH CITY      PTCLDY    62  59  90 CALM      30.02R
MOOSE LAKE     PTCLDY    57  55  94 CALM      30.00F
HINCKLEY       FAIR      63  59  88 CALM      30.01S
CLOQUET        PTCLDY    59  54  82 W3        30.02S
MCGREGOR       PTCLDY    57  54  88 CALM      30.03S
$$
MNZ071>073-080-081-089-090-097-098-210400-
   Southwest Minnesota

CITY           SKY/WX    TMP DP  RH WIND       PRES   REMARKS
MONTEVIDEO     CLEAR     63  57  82 N5        30.04R
GRANITE FALLS  MOCLDY    64  63  94 CALM      30.04R
CANBY          MOCLDY    63  60  91 CALM      30.05R
MARSHALL       CLEAR     64  61  90 CALM      30.03R
REDWOOD FALLS  CLEAR     67  63  87 CALM      30.02R
OLIVIA         CLEAR     63  61  94 N5        30.02R
PIPESTONE      MOCLDY    66  61  82 E5        30.04R
WINDOM         CLEAR     68  64  88 NE3       30.04S
WORTHINGTON    PTCLDY    67  65  93 NE6       30.05R
JACKSON        CLEAR     68  64  88 CALM      30.05R
TRACY          PTCLDY    65  64  96 CALM      30.04R
SLAYTON        PTCLDY    65  59  82 NE5       30.05S
$$
MNZ065>067-074>077-082>085-091>093-210400-
   South Central Minnesota

CITY           SKY/WX    TMP DP  RH WIND       PRES   REMARKS
MANKATO        MOCLDY    71  67  87 CALM      30.02R
NEW ULM        MOCLDY    70  64  83 CALM      30.02S
ST JAMES       CLOUDY    70  66  88 CALM      30.04R
FAIRMONT       MOCLDY    72  69  90 N6        30.03R
GLENCOE        CLEAR     68  66  94 N3        30.01R
FARIBAULT      PTCLDY    72  70  94 CALM      30.03R
OWATONNA       PTCLDY    72  70  94 CALM      30.03R
WASECA         PTCLDY    72  68  88 N6        30.04R
ALBERT LEA     CLEAR     73  72  94 CALM      30.02R
$$
MNZ078>079-086>088-094>096-210400-
   Southeast Minnesota

CITY           SKY/WX    TMP DP  RH WIND       PRES   REMARKS
ROCHESTER      PTCLDY    70  68  93 SE6       30.03S
RED WING       MOCLDY    75  66  73 NE5       29.99R
STANTON        MOCLDY    74  70  88 CALM      30.01R
DODGE CENTER   CLEAR     68  66  94 N3        30.04R
WINONA         CLOUDY    73  70  88 SE8       29.98F THUNDER
AUSTIN         CLEAR     72  66  83 CALM      30.03R
PRESTON        PTCLDY    70  65  85 SE5       30.06R
$$
ABBREVIATIONS USED IN REMARKS
   TC - TEMPERATURES IN CELSIUS
  WCI - WIND CHILL INDEX
   HX - HEAT INDEX
  VSB - VISIBILITY
$$




USA.gov is the U.S. government's official web portal to all federal, state and local government web resources and services.